Retour au catalogue

ELECTRON KICK STAGE R/B

ActifPO
NORAD 57393·ROCKET BODY·🇺🇸 United States

Lancé Jul 18, 2023 depuis Rocket Lab Launch Complex 1

Loading…

Prochains Passages (prochaines 24 heures)

TLE

FraisSource: Space-Track

Époque: Sep 14, 2026, 06:13 UTC

1 57393U 23100H   26257.25938021  .00006680  00000-0  55157-3 0  9991
2 57393  99.3254 187.9515 0299291 315.3259  42.4177 14.70526065168351

Suivez ELECTRON KICK STAGE R/B en temps réel avec AllMySat

Download on the App Store